Location: Silverdale
(47.6506°N, 122.6941°W)
Time: 05:29:20
(UTC+00:00)

Courier 1B Rocket - Pass Details

Date: 08 October 2022
Orbit: 920 x 1202 km, 28.3° (Epoch: 28 November)

Event Time Altitude Azimuth Distance (km) Brightness Sun altitude
Rises 03:57:14 0° 240° (WSW) 3,789 8.7 -24.0°
Reaches altitude 10° 04:01:58 10° 212° (SSW) 2,764 7.5 -24.8°
Maximum altitude 04:04:23 12° 190° (S) 2,574 7.1 -25.2°
Enters shadow 04:05:10 12° 183° (S) 2,581 7.0 -25.3°
